Location: Nairn
(57.5833°N, 3.8667°W)
Time: 02:30:36
(UTC+00:00)

PSLV R/B - Pass Details

Date: 07 August 2020
Orbit: 598 x 701 km, 97.9° (Epoch: 19 September)

Event Time Altitude Azimuth Distance (km) Brightness Sun altitude
Rises 00:39:10 0° 17° (NNE) 3,005 8.7 -16.0°
Reaches altitude 10° 00:41:24 10° 21° (NNE) 2,104 7.5 -16.0°
Maximum altitude 00:45:59 62° 102° (ESE) 768 3.9 -15.9°
Enters shadow 00:48:27 27° 175° (S) 1,314 4.6 -15.9°
